Regional Weather Roundup
Issued by NWS

Home | Current Version | Previous Version | Graphics & Text | Print | Product List | Glossary On
Versions: 1 2 3 4 5 6 7 8 9 10 11 12 13 14 15 16 17 18 19 20 21 22 23 24 25 26 27 28 29 30 31 32 33 34 35 36 37 38 39 40 41 42 43 44 45 46 47 48 49 50
714
ASUS43 KTOP 281508
RWRKS

WEATHER ROUNDUP FOR KANSAS
NATIONAL WEATHER SERVICE GOODLAND KS
900 AM CST TUE FEB 28 2017

NOTE:  "FAIR" INDICATES FEW OR NO CLOUDS BELOW 12,000 FEET WITH NO
SIGNIFICANT WEATHER AND/OR OBSTRUCTIONS TO VISIBILITY.

KSZ001>006-013>018-027>032-041>047-281600-
NORTHWEST KANSAS

CITY           SKY/WX    TMP DP  RH WIND       PRES   REMARKS
GOODLAND       CLOUDY    35  22  58 N15       29.72R WCI  25
HAYS           CLOUDY    36  26  67 NW10      29.71S WCI  28
HILL CITY      MOSUNNY   36  27  69 NW13      29.72R WCI  27
RUSSELL        CLOUDY    38  27  64 W10       29.70R WCI  31
$$

KSZ061>065-074>080-084>089-281600-
SOUTHWEST KANSAS

CITY           SKY/WX    TMP DP  RH WIND       PRES   REMARKS
DODGE CITY     CLOUDY    39  24  55 N12       29.71S WCI  32
ELKHART          N/A     47  24  40 NE6         N/A
GARDEN CITY    CLOUDY    36  22  56 N10       29.71S WCI  28
GREAT BEND     CLOUDY    40  25  55 W13       29.71R WCI  32
LIBERAL        CLOUDY    45  19  36 N3        29.72R
PRATT          CLOUDY    46  22  38 W7        29.71F
$$

KSZ066>073-081>083-090>101-281600-
SOUTHEAST KANSAS

CITY           SKY/WX    TMP DP  RH WIND       PRES   REMARKS
CHANUTE        CLOUDY    66  59  78 S26G35    29.72S
COFFEYVILLE    CLOUDY    65  61  87 S16       29.76S
HUTCHINSON     CLOUDY    52  40  63 SW9       29.69R
MEDICINE LODGE   N/A     49  30  48 SW7       29.72R
PARSONS        CLOUDY    66  61  84 S14G22    29.76S
WICHITA INTL   CLOUDY    55  47  74 SW8       29.72R
WICHITA JABRA  MOSUNNY   57  46  66 SW16      29.71R
WICHITA MCCONL MOSUNNY   56  48  73 W15       29.71R
WINFIELD       CLOUDY    61  54  77 S12       29.74R
$$

KSZ007>012-019>026-033>040-048>060-102>105-281600-
NORTHEAST KANSAS

CITY           SKY/WX    TMP DP  RH WIND       PRES   REMARKS
CONCORDIA      CLOUDY    44  29  55 W13       29.67R
EMPORIA        CLOUDY    64  56  75 SW21G29   29.68R
LAWRENCE       CLOUDY    64  59  83 S13       29.67S
MANHATTAN      CLOUDY    57  54  89 SW3       29.65F FOG
MARYSVILLE     SUNNY     52  37  58 W10       29.65F
OLATHE IND     CLOUDY    63  58  83 S17       29.69F
OLATHE EXE     CLOUDY    63  59  87 S18G25    29.69F
SALINA         CLOUDY    48  35  60 W6        29.67R
TOPEKA BILLARD MOSUNNY   62  60  93 S9        29.65F
TOPEKA FORBES  MOSUNNY   64  58  80 S15       29.65F
$$




USA.gov is the U.S. government's official web portal to all federal, state and local government web resources and services.